GEFSSE_con_cape1000_096.txt.gz
Probability
48 65 100 100 100 100 100 100 100 100 100 100 97 97 100 94 94 90 90 90 90 94 97 90 90 90 90 94 87 97 97 94 97 97 97 97 94 97 97 97 97 94 97
81 74 100 100 100 100 100 100 100 100 100 100 97 97 100 100 100 97 94 90 81 97 97 94 90 90 97 94 94 100 100 97 97 97 94 97 97 97 97 90 94 90 100
87 90 100 100 100 100 100 100 100 100 100 100 100 100 100 100 97 94 94 94 74 84 94 87 94 90 90 94 94 94 94 90 94 97 94 81 87 97 100 100 94 97 97
84 77 94 100 100 100 100 100 100 100 100 100 100 100 100 100 100 97 94 87 84 84 81 74 71 81 87 87 90 90 84 87 87 90 97 55 48 87 97 97 97 97 97
84 77 100 100 100 100 100 100 100 100 100 100 100 100 100 100 100 97 97 90 84 81 77 61 65 81 87 87 87 84 81 71 77 81 90 81 77 97 97 97 97 97 97
84 90 100 100 100 100 100 100 100 100 100 100 100 100 100 100 100 100 97 90 90 84 77 68 61 71 81 84 84 87 84 81 81 74 87 81 81 97 97 94 94 97 97
81 94 97 100 100 100 100 100 100 100 100 100 100 100 100 100 100 100 97 94 94 87 77 71 74 68 71 77 84 87 90 84 87 74 87 84 97 97 94 94 94 94 97
97 97 100 100 100 100 100 100 100 100 100 100 100 100 100 100 100 100 100 94 94 90 90 84 81 81 84 87 90 94 87 84 42 39 71 94 97 100 97 97 97 94 94
97 100 100 100 100 100 100 100 100 100 100 100 100 100 100 100 97 97 97 97 97 97 94 94 87 94 97 100 100 97 94 94 77 35 29 90 100 100 100 100 100 100 100
100 100 100 100 100 100 100 100 100 100 100 100 100 100 100 97 97 97 97 97 97 97 97 97 97 97 97 100 100 100 100 97 48 16 26 94 100 100 100 100 100 100 100
100 100 100 100 100 100 100 100 100 100 100 100 100 100 97 97 97 97 97 97 97 97 97 97 97 97 100 100 100 100 100 87 29 13 35 97 100 100 100 100 100 100 100
87 100 100 100 100 97 100 100 100 100 100 100 100 100 100 97 97 94 97 97 97 97 97 97 97 97 100 100 97 97 94 71 35 39 55 100 100 100 100 100 100 100 100
94 100 100 100 100 100 100 100 100 100 100 100 100 100 100 100 97 87 97 97 97 97 97 94 94 94 94 94 100 97 90 52 45 45 71 94 97 100 100 100 100 100 100
100 100 100 100 100 100 100 100 100 100 100 100 97 97 100 97 94 97 97 97 97 87 90 90 90 90 90 84 84 94 84 74 65 71 84 94 94 100 100 100 100 100 100
94 97 97 97 97 97 97 97 100 100 100 100 97 97 94 90 87 87 84 87 84 90 90 87 87 84 81 77 81 81 77 74 68 68 77 90 90 97 97 100 100 100 100
97 97 97 97 97 97 97 97 100 100 97 97 94 90 87 90 84 81 81 81 84 87 87 84 84 77 77 77 84 84 77 81 68 68 77 81 94 94 97 97 97 100 100
97 97 97 97 97 97 97 97 94 94 90 90 90 94 90 84 84 84 74 74 81 87 84 87 77 81 71 68 77 74 77 81 65 71 74 68 71 87 94 94 97 100 100
90 94 94 87 90 90 94 87 81 87 94 90 84 81 74 74 74 71 71 71 68 74 71 74 74 68 68 65 71 77 61 74 71 71 74 71 65 65 84 90 97 100 100
90 87 84 87 84 87 87 90 94 100 90 84 74 68 58 55 55 61 61 61 61 68 61 48 55 58 58 52 55 74 74 77 81 71 77 77 71 65 61 77 94 97 100
77 77 77 81 84 81 84 97 94 84 87 74 61 55 42 42 35 42 39 48 48 48 48 52 48 52 48 45 23 23 55 71 77 71 68 58 71 68 65 61 87 90 94
74 77 77 77 81 84 84 84 81 81 77 77 68 52 39 32 26 26 29 39 29 35 35 35 42 42 29 29 29 23 26 32 39 45 45 45 42 65 71 77 81 84 77
68 71 65 71 74 77 74 77 81 71 71 52 42 48 42 32 35 13 26 23 26 23 23 29 32 39 32 23 16 13 13 19 29 26 32 42 23 52 55 55 71 81 74
39 45 45 65 68 71 74 61 48 58 61 48 45 45 35 26 23 19 19 19 23 16 13 26 32 32 29 26 29 19 6 6 16 32 29 19 26 35 39 35 65 74 65
26 29 32 48 58 65 61 52 45 35 26 29 32 32 32 23 19 16 16 13 26 26 23 26 23 35 23 13 23 39 35 26 10 10 19 19 35 39 45 19 35 65 65
10 13 23 48 48 58 55 48 52 35 32 23 32 29 32 29 19 13 16 16 19 19 23 23 26 13 13 10 16 32 29 35 16 10 0 10 19 32 35 39 32 48 55
13 10 16 32 42 48 48 48 52 42 42 35 35 29 26 19 10 10 13 23 23 16 10 13 10 16 19 23 26 23 26 16 6 13 10 3 6 16 29 42 29 39 42

GEFSSE_con_cape1000_102.txt.gz
Probability
71 100 100 100 100 100 100 100 100 100 100 100 100 100 100 100 100 100 100 100 100 100 100 100 97 97 97 97 97 100 100 100 100 100 100 100 100 100 97 94 94 90 94
71 100 100 100 100 100 100 100 100 100 100 100 100 100 100 100 100 100 100 100 100 100 97 100 100 100 100 97 100 100 100 100 100 100 100 100 100 100 100 97 97 90 100
81 100 100 100 100 100 100 100 100 100 100 100 100 100 100 100 100 100 100 100 100 100 97 97 97 97 97 100 100 100 100 100 100 100 97 94 97 100 100 100 97 97 94
84 100 100 100 100 100 100 100 100 100 100 100 100 100 100 100 100 100 100 97 100 100 97 94 94 90 94 94 94 94 94 94 100 100 71 74 90 100 100 100 100 100 97
77 94 100 100 100 100 100 100 100 100 100 100 100 100 100 100 100 100 100 97 97 97 94 90 90 90 90 90 90 90 90 94 94 90 39 48 81 100 100 100 100 100 100
81 94 100 100 100 100 100 100 100 100 100 100 100 100 100 100 100 100 100 97 97 97 94 94 90 90 90 87 87 87 84 87 87 55 13 48 87 100 100 100 100 100 100
84 97 100 100 100 100 100 100 100 100 100 100 100 100 100 100 100 100 100 100 100 100 100 97 97 97 94 94 90 90 90 87 55 35 10 39 84 100 100 100 100 100 97
87 97 100 100 100 100 100 100 100 100 100 100 100 100 100 100 100 100 100 100 100 100 100 100 97 97 97 97 94 90 94 87 61 29 16 19 81 100 97 97 97 97 97
90 94 100 100 100 100 100 100 100 100 100 100 100 100 100 100 100 100 100 100 100 100 100 100 100 100 100 100 100 97 97 97 52 26 19 13 94 97 97 97 97 97 97
90 90 97 100 100 100 100 100 100 100 100 100 100 100 100 100 100 100 100 100 97 97 97 100 100 100 100 100 100 100 100 94 61 29 13 29 97 100 100 100 100 97 97
90 90 97 97 97 100 100 100 100 100 100 100 100 100 100 100 100 100 97 97 97 97 97 97 97 97 100 100 100 100 100 77 39 16 6 55 100 100 100 100 100 100 100
87 90 94 94 97 97 100 100 100 100 100 97 97 97 97 94 94 97 97 97 97 97 97 97 97 97 97 100 100 100 94 68 39 23 19 81 100 100 97 97 100 100 100
77 84 84 90 97 97 97 100 100 100 97 94 94 94 90 81 87 90 87 97 97 97 97 97 97 97 97 90 90 94 90 71 39 26 16 87 100 97 94 97 97 100 100
81 77 74 87 84 90 97 100 97 97 90 90 90 90 87 84 74 71 71 84 90 90 84 87 90 90 90 90 77 74 81 68 35 16 23 87 97 97 94 97 100 100 100
65 68 77 77 84 77 84 87 87 90 84 87 84 81 74 71 61 65 52 58 68 77 74 71 71 74 68 74 65 61 68 52 39 16 16 84 94 97 97 97 100 100 100
58 65 68 68 68 71 74 81 81 74 71 77 68 61 58 52 48 39 39 35 35 48 55 55 55 55 55 48 45 39 32 42 32 16 16 52 94 97 97 100 97 100 100
55 52 55 52 52 61 58 58 61 58 55 32 32 39 42 42 42 32 26 19 19 26 32 39 35 35 32 32 19 19 26 29 26 19 19 23 55 97 97 97 100 100 100
42 42 45 42 39 42 45 45 39 39 26 26 16 16 16 19 16 13 13 10 13 16 16 23 26 23 23 13 10 10 10 13 10 10 13 16 19 32 84 100 100 100 100
39 39 32 35 35 35 32 29 23 23 19 16 23 23 19 13 16 10 10 6 16 6 6 10 6 3 3 6 6 6 6 6 0 6 10 16 16 10 16 58 97 97 100
19 23 23 19 23 29 26 19 13 10 3 10 16 13 10 6 6 3 3 3 3 3 6 6 6 6 6 3 3 3 3 3 3 0 0 13 10 10 6 6 55 68 94
19 16 16 16 19 19 13 16 10 10 6 3 3 10 3 3 3 3 3 3 3 3 3 3 3 3 3 3 0 0 0 0 0 0 0 0 0 3 6 3 6 13 39
16 10 10 10 16 13 10 6 3 6 6 3 3 3 3 3 3 3 3 3 3 3 3 3 3 3 3 3 0 0 0 0 0 0 0 0 0 0 3 3 3 6 10
6 6 13 10 10 10 10 6 6 3 3 3 3 3 3 3 3 3 3 3 3 3 3 3 3 3 3 3 0 0 0 0 0 0 0 0 0 0 3 6 3 3 3
10 10 10 6 10 6 3 6 0 3 3 3 3 3 3 3 3 3 3 3 3 3 3 3 3 0 0 0 0 0 0 0 0 0 0 0 0 0 0 0 0 0 3
6 10 3 3 0 3 0 0 0 0 0 0 0 0 3 0 3 0 0 0 0 0 3 3 0 0 0 0 0 0 0 0 0 0 0 0 0 0 0 0 0 0 0
0 3 0 0 0 0 0 0 0 0 0 0 0 0 0 0 0 0 0 0 0 0 0 0 0 0 0 0 0 0 0 0 0 0 0 0 0 0 0 0 0 0 0

GEFSSE_con_cape1000_108.txt.gz
Probability
71 100 100 100 100 100 100 100 100 100 100 100 100 100 100 100 100 100 100 100 100 100 100 100 100 100 97 100 97 100 97 100 100 94 97 97 97 100 94 94 87 84 97
74 100 100 100 100 100 100 100 100 100 100 100 100 100 100 100 100 100 100 100 100 100 100 100 100 100 97 97 100 100 100 100 100 100 100 97 100 100 97 97 87 87 100
97 100 100 100 100 100 100 100 100 100 100 100 100 100 100 100 100 100 100 100 100 100 100 100 100 100 100 100 100 100 100 100 100 100 100 97 97 100 100 97 94 97 97
100 100 100 100 100 100 100 100 100 100 100 100 100 100 100 100 100 100 100 100 100 100 97 97 97 100 100 100 100 100 100 100 100 100 97 97 94 94 100 100 100 100 94
100 100 100 100 100 100 100 100 100 100 100 100 100 100 100 100 100 100 100 100 100 100 97 94 97 97 100 100 100 100 100 100 100 94 68 90 97 100 100 100 100 100 100
100 100 100 100 100 100 100 100 100 100 100 100 100 100 100 100 100 100 100 100 100 100 97 94 94 97 100 100 100 100 100 100 90 74 65 84 94 100 100 100 100 97 97
100 100 100 100 100 100 100 100 100 100 100 100 100 100 100 100 100 100 100 100 100 97 97 97 97 97 97 97 97 97 97 94 58 65 61 77 87 97 100 100 100 97 97
100 100 100 100 100 100 100 100 100 100 100 100 100 100 100 100 100 100 100 100 100 97 97 97 97 97 97 97 97 94 94 87 74 55 65 74 90 97 100 100 100 97 97
100 100 100 100 100 100 100 100 100 100 100 100 100 100 100 100 100 100 100 100 100 100 100 97 97 97 97 97 97 97 94 90 39 42 55 65 90 97 100 100 100 100 97
94 97 97 97 100 100 100 100 97 97 97 97 97 100 100 100 100 100 100 100 100 100 100 100 100 100 100 100 100 97 97 97 42 35 42 61 97 100 100 100 100 100 97
94 94 94 97 97 97 97 97 97 97 97 97 97 97 97 97 97 100 100 100 100 100 100 100 100 100 100 100 100 100 100 87 55 32 32 68 100 100 100 100 100 100 100
94 94 87 90 90 90 90 97 94 94 94 94 94 94 90 94 94 94 90 97 97 97 97 100 100 97 97 97 97 100 97 84 61 48 29 65 100 100 100 100 100 100 100
77 84 77 81 87 90 90 87 94 94 94 94 94 87 87 87 87 87 90 90 90 94 94 94 97 97 97 97 97 94 94 81 68 58 42 94 100 100 100 100 100 100 100
61 65 74 74 77 77 84 84 90 94 94 94 87 94 81 81 77 74 77 77 81 84 84 87 87 84 84 84 81 87 84 84 77 61 35 77 100 100 100 100 100 100 100
52 52 55 58 71 74 77 77 84 77 87 81 77 71 65 65 68 61 61 58 61 65 68 68 74 71 77 77 74 74 74 77 77 61 39 71 97 100 100 100 100 100 100
48 52 48 48 58 55 52 55 55 65 65 61 52 52 55 58 58 52 48 45 42 45 48 58 65 65 58 58 55 58 68 65 61 55 42 32 87 100 100 100 100 100 100
39 45 52 48 48 45 45 35 35 29 23 23 29 26 29 29 35 35 35 32 29 29 35 35 35 32 32 35 42 45 45 42 42 48 42 29 42 77 97 100 100 100 100
23 26 26 35 32 13 13 13 16 10 6 6 6 10 16 16 26 19 16 16 16 10 13 13 23 23 23 23 23 29 35 29 35 39 32 32 26 32 81 94 100 100 100
13 10 13 19 13 13 6 6 6 10 6 6 6 6 6 6 6 6 6 3 3 3 3 10 13 13 16 13 13 13 13 16 16 19 23 32 19 26 42 71 94 100 97
10 10 6 3 6 6 6 6 6 6 6 3 3 3 3 3 3 3 3 3 3 3 3 3 3 3 6 6 6 10 10 6 13 10 13 13 16 13 16 32 74 74 87
6 6 6 3 3 0 3 3 3 3 3 3 3 3 3 3 3 3 3 3 3 3 3 3 3 3 3 3 3 6 3 3 3 3 3 6 6 16 16 23 39 39 52
6 6 6 3 3 3 0 0 3 3 3 3 3 3 3 3 3 3 3 3 3 3 3 3 3 3 3 3 3 3 3 0 0 0 3 3 3 6 10 10 19 23 29
0 0 0 0 0 0 0 0 0 0 0 3 3 3 3 3 3 3 3 3 3 3 3 3 3 3 3 3 3 3 3 0 0 0 0 0 0 0 3 10 10 16 13
0 0 0 0 0 0 0 0 0 0 0 0 0 0 0 3 3 3 0 0 0 3 3 3 3 3 3 3 0 0 0 0 0 0 0 0 0 0 0 0 0 0 6
0 0 0 0 0 0 0 0 0 0 0 0 0 0 0 0 0 3 3 3 0 3 3 3 0 0 3 3 3 0 0 0 0 0 0 0 0 0 0 0 0 0 3
0 0 0 0 0 0 0 0 0 0 0 0 0 0 0 0 0 0 0 0 0 0 0 0 0 0 0 0 0 0 0 0 0 0 0 0 0 0 0 0 0 0 0

GEFSSE_con_cape1000_114.txt.gz
Probability
81 100 100 100 100 100 100 100 100 100 100 100 100 100 97 97 97 97 100 97 97 94 90 87 90 87 87 87 90 87 84 90 87 87 84 87 90 90 94 94 87 71 90
84 100 100 100 100 100 100 100 100 100 100 100 100 100 100 100 100 100 100 97 97 100 97 97 94 97 90 97 94 94 97 97 90 87 87 90 90 94 97 94 94 77 94
94 100 100 100 100 100 100 100 100 100 100 100 100 100 100 100 100 100 100 100 100 97 97 97 94 94 90 90 97 100 100 100 94 97 90 84 84 100 100 97 97 94 94
97 100 100 100 100 100 100 100 100 100 100 100 100 100 100 100 100 100 100 100 100 97 100 94 94 94 94 97 97 100 100 100 97 97 84 77 77 97 100 100 97 94 94
97 100 100 100 100 100 100 100 100 100 100 100 100 100 100 100 100 100 100 100 97 97 100 100 97 97 100 97 100 100 100 100 100 90 74 74 97 100 100 97 97 94 97
87 100 100 100 100 100 100 100 100 100 100 100 100 100 100 100 100 100 100 97 97 97 97 97 100 100 100 100 100 100 100 100 100 71 77 81 97 100 100 97 90 94 97
84 100 100 100 100 100 100 100 100 100 100 100 100 100 100 100 100 100 97 97 97 97 97 94 94 97 100 100 100 97 97 100 81 58 84 81 100 97 97 97 97 100 100
84 97 100 100 100 100 100 100 100 100 100 100 100 100 100 100 100 97 97 97 97 97 97 97 97 97 97 97 97 97 90 94 58 45 58 77 100 97 97 97 97 100 100
90 97 100 100 100 100 100 100 100 100 100 100 100 100 100 100 100 100 100 100 97 97 97 97 97 97 97 97 97 97 94 87 71 61 42 84 100 100 100 100 100 97 97
94 94 97 100 100 100 100 100 100 100 100 100 100 100 100 100 100 100 100 100 100 97 100 97 97 97 97 97 97 97 90 87 65 58 65 84 100 100 100 100 100 97 97
94 94 97 97 97 97 94 100 100 100 100 100 100 100 100 100 100 100 100 97 97 97 97 97 97 97 97 100 100 100 94 71 65 65 77 100 100 100 100 100 100 100 97
97 97 97 97 97 97 97 100 100 94 97 100 100 100 97 100 100 97 97 97 97 97 97 97 97 97 97 97 100 100 87 61 61 71 77 100 100 100 100 100 100 100 100
90 94 97 94 97 97 97 94 90 90 90 90 97 97 94 94 94 90 94 94 94 94 97 97 97 94 97 97 94 90 74 52 61 68 77 100 100 100 100 100 100 100 100
87 90 90 94 94 90 97 94 90 90 94 94 97 97 94 90 90 90 94 87 87 90 94 97 100 94 97 97 94 81 71 68 68 65 90 100 94 100 100 100 97 97 100
77 77 77 77 84 87 90 87 84 87 87 84 87 84 84 87 90 87 87 87 84 81 94 97 94 90 90 94 90 87 77 71 52 45 84 97 90 90 97 94 94 97 94
81 77 74 74 71 74 77 81 71 74 77 71 65 61 74 81 81 84 77 81 81 77 74 81 81 87 90 84 87 74 74 61 68 61 55 71 84 94 94 94 90 94 100
74 68 68 71 65 68 61 58 52 55 52 48 55 52 58 61 68 74 71 74 65 52 68 74 68 71 71 65 71 71 74 74 68 68 65 65 71 81 94 90 87 90 94
55 61 55 48 52 55 52 58 58 58 58 55 55 55 45 39 42 58 68 61 52 58 55 65 61 65 55 58 68 68 68 74 68 61 61 68 68 61 77 90 90 90 90
48 52 45 45 45 45 45 42 39 35 45 39 39 39 32 29 32 35 39 48 42 42 39 35 48 55 48 58 52 45 48 55 58 52 52 55 61 65 74 87 90 90 94
45 42 45 48 48 39 29 26 26 23 23 29 29 35 29 23 19 16 23 29 32 29 29 32 39 39 55 52 29 26 29 35 52 48 35 42 52 52 52 45 84 77 90
32 32 29 35 29 26 19 16 16 13 13 19 16 13 19 16 13 19 19 19 23 26 26 16 23 23 32 39 29 23 23 23 29 42 39 32 32 35 45 58 58 71 68
26 23 23 19 13 13 13 19 19 16 6 10 6 6 6 6 6 6 13 16 13 19 10 13 23 16 16 6 10 16 19 23 29 10 32 35 29 39 42 45 58 77 68
13 10 6 6 6 10 10 6 6 13 10 6 0 3 3 0 3 6 3 10 13 13 13 6 10 13 6 16 19 16 19 13 13 23 16 23 32 48 35 39 42 58 74
13 13 10 10 10 10 6 3 10 6 6 6 3 3 0 0 0 0 0 3 3 6 3 3 3 10 10 13 13 13 16 10 6 10 10 16 19 23 35 29 35 48 65
3 6 10 6 6 6 3 3 6 3 3 0 3 3 3 0 0 0 0 0 0 0 3 3 3 10 23 13 16 10 10 3 3 3 3 3 10 19 26 39 42 52 45
3 3 0 3 3 3 0 0 0 0 0 0 3 0 0 0 0 0 0 0 0 3 3 3 3 3 6 6 6 10 10 3 3 3 3 3 6 6 16 42 35 35 35